Location: Wien
(48.2082°N, 16.3738°E)
Time: 03:00:06
(UTC+02:00)

MOZHAYETS 4 - Pass Details

Date: 29 April 2024
Orbit: 652 x 670 km, 98.3° (Epoch: 23 May)

Event Time Altitude Azimuth Distance (km) Brightness Sun altitude
Rises 04:58:55 0° 195° (SSW) 3,006 10.6 -6.7°
Reaches altitude 10° 05:01:25 10° 207° (SSW) 2,097 9.8 -6.4°
Maximum altitude 05:05:19 27° 265° (W) 1,281 8.7 -5.8°
Drops below altitude 10° 05:09:15 10° 324° (NW) 2,109 10.2 -5.2°
Sets 05:11:47 0° 336° (NNW) 3,026 11.2 -4.9°
